GW6884 Weather Reports


Display with metric or nautical units.
time (UTC)temp
F
wind
direction
speed
MPH
gust
MPH
rain 1hr
in
rain 24hr
in
rain mn
in
humidity
%
barometer
mb
20260504081524 46 252 4.0 5.0 0.00 0.00 0.00 46 1011.0
20260504050021 51 327 3.0 5.0 0.00 0.00 0.00 38 1011.7
20260504044526 49 295 5.0 6.0 0.00 0.00 0.00 40 1011.7
20260504043026 50 3 2.0 7.0 0.00 0.00 0.00 39 1011.7
20260504041512 53 282 3.0 5.0 0.00 0.00 0.00 34 1011.3
20260504040018 53 290 4.0 6.0 0.00 0.00 0.00 33 1011.2
20260504034531 53 279 3.0 5.0 0.00 0.00 0.00 33 1011.3
20260504033039 54 288 3.0 5.0 0.00 0.00 0.00 32 1011.3
20260504031510 54 311 2.0 3.0 0.00 0.00 0.00 33 1011.3
20260504030017 54 326 3.0 5.0 0.00 0.00 0.00 32 1011.3
20260504024539 54 316 3.0 4.0 0.00 0.00 0.00 34 1011.2
20260504023022 56 329 4.0 10.0 0.00 0.00 0.00 32 1011.1
20260504021525 57 337 5.0 6.0 0.00 0.00 0.00 31 1011.1
20260504020015 58 330 5.0 6.0 0.00 0.00 0.00 30 1011.1
20260504014516 59 347 4.0 7.0 0.00 0.00 0.00 30 1011.1
20260504013022 59 352 4.0 8.0 0.00 0.00 0.00 30 1011.2
20260504011524 60 352 5.0 9.0 0.00 0.00 0.00 29 1011.1
20260504010029 61 360 5.0 12.0 0.00 0.00 0.00 24 1011.1
20260504004533 63 1 10.0 13.0 0.00 0.00 0.00 21 1011.2
20260504003019 64 360 7.0 14.0 0.00 0.00 0.00 23 1011.3
20260504001522 64 22 8.0 9.0 0.00 0.00 0.00 22 1011.5
20260504000028 65 356 4.0 10.0 0.00 0.00 0.00 26 1011.5
20260503234528 66 330 6.0 12.0 0.00 0.00 0.00 21 1011.6
20260503233018 66 360 7.0 11.0 0.00 0.00 0.00 24 1011.7
20260503231523 66 23 8.0 13.0 0.00 0.00 0.00 25 1011.7
20260503230026 66 360 7.0 11.0 0.00 0.00 0.00 28 1012.0
20260503224527 66 18 8.0 17.0 0.00 0.00 0.00 27 1012.1
20260503223017 65 2 9.0 14.0 0.00 0.00 0.00 25 1012.1
20260503221520 65 359 10.0 14.0 0.00 0.00 0.00 29 1012.3
20260503220027 65 344 11.0 16.0 0.00 0.00 0.00 30 1012.7
20260503214527 63 34 8.0 13.0 0.00 0.00 0.00 31 1012.8
20260503213029 62 359 9.0 16.0 0.00 0.00 0.00 31 1013.0
20260503211525 64 336 5.0 15.0 0.00 0.00 0.00 33 1013.4
20260503210022 63 11 7.0 15.0 0.00 0.00 0.00 30 1013.6
20260503204525 64 319 6.0 13.0 0.00 0.00 0.00 30 1014.0
20260503203014 63 359 3.0 11.0 0.00 0.00 0.00 34 1014.2
20260503201518 62 360 6.0 17.0 0.00 0.00 0.00 35 1014.3
20260503200024 62 11 8.0 16.0 0.00 0.00 0.00 35 1014.6
20260503194529 62 338 6.0 11.0 0.00 0.00 0.00 35 1014.8
20260503193029 60 354 7.0 11.0 0.00 0.00 0.00 39 1015.1
20260503191518 59 330 9.0 17.0 0.00 0.00 0.00 38 1015.4
20260503190029 63 5 8.0 18.0 0.00 0.00 0.00 41 1015.4
20260503184524 61 323 8.0 14.0 0.00 0.00 0.00 38 1015.5
20260503183027 60 359 9.0 16.0 0.00 0.00 0.00 39 1015.6
20260503181513 61 30 10.0 16.0 0.00 0.00 0.00 39 1015.8
20260503180021 60 9 9.0 18.0 0.00 0.00 0.00 43 1016.1
20260503174527 59 359 7.0 14.0 0.00 0.00 0.00 42 1016.2
20260503173028 59 25 10.0 14.0 0.00 0.00 0.00 39 1016.5
20260503171529 59 22 6.0 10.0 0.00 0.00 0.00 40 1016.6